TimeEDT,TemperatureF,Dew PointF,Humidity,Sea Level PressureIn,VisibilityMPH,Wind Direction,Wind SpeedMPH,Gust SpeedMPH,PrecipitationIn,Events,Conditions,WindDirDegrees,DateUTC
12:06 AM,57.2,55.4,94,30.05,8.0,East,6.9,-,0.01,Rain,Light Rain,80,2013-05-09 04:06:00
12:35 AM,57.2,55.4,94,30.04,10.0,East,6.9,-,0.01,,Overcast,90,2013-05-09 04:35:00
12:46 AM,57.2,55.4,94,30.04,10.0,East,5.8,-,N/A,,Overcast,90,2013-05-09 04:46:00
12:56 AM,57.0,55.9,96,30.07,10.0,East,5.8,-,0.01,,Overcast,80,2013-05-09 04:56:00
1:56 AM,55.4,55.4,100,30.01,7.0,East,4.6,-,N/A,,Overcast,80,2013-05-09 05:56:00
2:56 AM,55.9,55.9,100,30.04,3.0,East,3.5,-,N/A,,Overcast,80,2013-05-09 06:56:00
3:09 AM,55.4,55.4,100,30.00,2.0,Calm,Calm,-,N/A,,Overcast,0,2013-05-09 07:09:00
3:26 AM,57.2,55.4,94,30.00,1.5,ENE,3.5,-,N/A,,Overcast,60,2013-05-09 07:26:00
3:48 AM,57.2,55.4,94,29.99,2.0,Calm,Calm,-,N/A,,Overcast,0,2013-05-09 07:48:00
3:56 AM,57.0,55.9,96,30.02,1.8,Calm,Calm,-,N/A,,Overcast,0,2013-05-09 07:56:00
4:23 AM,55.4,55.4,100,29.98,0.5,NNE,3.5,-,N/A,Fog,Fog,20,2013-05-09 08:23:00
4:56 AM,57.0,55.9,96,30.02,0.2,Calm,Calm,-,N/A,Fog,Fog,0,2013-05-09 08:56:00
5:09 AM,55.4,55.4,100,29.98,0.2,Calm,Calm,-,N/A,Fog,Fog,0,2013-05-09 09:09:00
5:56 AM,55.9,55.9,100,30.02,0.2,Calm,Calm,-,N/A,Fog,Fog,0,2013-05-09 09:56:00
6:19 AM,57.2,57.2,100,29.98,0.2,Calm,Calm,-,N/A,Fog,Fog,0,2013-05-09 10:19:00
6:29 AM,57.2,57.2,100,29.98,0.2,Calm,Calm,-,N/A,Fog,Fog,0,2013-05-09 10:29:00
6:56 AM,57.0,57.0,100,30.02,0.2,East,4.6,-,N/A,Fog,Fog,80,2013-05-09 10:56:00
7:24 AM,57.2,57.2,100,29.98,0.1,East,3.5,-,N/A,Fog,Fog,80,2013-05-09 11:24:00
7:56 AM,57.0,57.0,100,30.04,0.8,Calm,Calm,-,N/A,,Overcast,0,2013-05-09 11:56:00
8:52 AM,57.2,57.2,100,29.99,1.5,Calm,Calm,-,0.00,Rain,Light Rain,0,2013-05-09 12:52:00
8:56 AM,59.0,57.9,96,30.03,1.5,Calm,Calm,-,0.00,Rain,Light Rain,0,2013-05-09 12:56:00
9:51 AM,60.8,57.2,88,29.98,2.5,NNE,4.6,-,0.01,,Overcast,20,2013-05-09 13:51:00
9:56 AM,61.0,59.0,93,30.01,2.5,ENE,3.5,-,0.01,,Overcast,60,2013-05-09 13:56:00
9:58 AM,60.8,59.0,94,29.97,9.0,NNE,4.6,-,N/A,,Overcast,30,2013-05-09 13:58:00
10:07 AM,62.6,57.2,82,29.97,10.0,North,3.5,-,N/A,,Overcast,10,2013-05-09 14:07:00
10:37 AM,62.6,57.2,82,29.97,9.0,Calm,Calm,-,N/A,,Mostly Cloudy,0,2013-05-09 14:37:00
10:56 AM,64.0,57.9,80,30.01,9.0,Variable,4.6,-,N/A,,Mostly Cloudy,0,2013-05-09 14:56:00
11:15 AM,64.4,57.2,77,29.97,10.0,NE,3.5,-,N/A,,Mostly Cloudy,50,2013-05-09 15:15:00
11:49 AM,62.6,57.2,82,29.96,8.0,North,4.6,-,0.02,Rain,Light Rain,10,2013-05-09 15:49:00
11:56 AM,62.1,57.9,86,30.01,8.0,NNW,3.5,-,0.03,Rain,Light Rain,340,2013-05-09 15:56:00
12:30 PM,60.8,59.0,94,29.97,2.0,SSW,4.6,-,0.05,Rain,Rain,200,2013-05-09 16:30:00
12:56 PM,60.1,59.0,96,30.01,2.0,Calm,Calm,-,0.16,Rain,Rain,0,2013-05-09 16:56:00
1:00 PM,60.8,59.0,94,29.96,3.0,East,3.5,-,0.01,Rain,Light Rain,100,2013-05-09 17:00:00
1:05 PM,60.8,59.0,94,29.96,2.0,ESE,3.5,-,0.01,Rain,Light Rain,110,2013-05-09 17:05:00
1:51 PM,60.8,59.0,94,29.94,2.0,Calm,Calm,-,0.07,Rain,Light Rain,0,2013-05-09 17:51:00
1:56 PM,61.0,59.0,93,29.98,2.0,SE,3.5,-,0.07,Rain,Light Rain,140,2013-05-09 17:56:00
2:36 PM,62.6,59.0,88,29.93,10.0,Calm,Calm,-,0.00,,Scattered Clouds,0,2013-05-09 18:36:00
2:56 PM,64.9,59.0,81,29.96,10.0,Calm,Calm,-,0.00,,Clear,0,2013-05-09 18:56:00
3:56 PM,66.9,55.9,68,29.94,10.0,SSE,5.8,-,N/A,,Mostly Cloudy,160,2013-05-09 19:56:00
4:04 PM,66.2,55.4,68,29.89,10.0,SE,5.8,-,N/A,,Mostly Cloudy,130,2013-05-09 20:04:00
4:40 PM,64.4,57.2,77,29.89,10.0,ESE,12.7,17.3,0.00,Rain-Thunderstorm,Light Thunderstorms and Rain,110,2013-05-09 20:40:00
4:56 PM,63.0,57.9,84,29.93,10.0,East,10.4,-,0.00,Rain-Thunderstorm,Light Thunderstorms and Rain,100,2013-05-09 20:56:00
5:19 PM,62.6,55.4,77,29.90,10.0,ESE,8.1,-,0.00,,Overcast,120,2013-05-09 21:19:00
5:51 PM,59.0,57.2,94,29.90,4.0,ESE,11.5,-,0.05,Rain,Light Rain,110,2013-05-09 21:51:00
5:56 PM,59.0,57.0,93,29.94,4.0,East,10.4,-,0.06,Rain,Rain,100,2013-05-09 21:56:00
6:03 PM,57.2,57.2,100,29.90,5.0,East,12.7,-,0.01,Rain,Light Rain,100,2013-05-09 22:03:00
6:56 PM,57.9,-9999,N/A,29.93,10.0,ENE,3.5,-,0.03,Rain,Light Rain,60,2013-05-09 22:56:00
7:31 PM,57.2,-9999,N/A,29.89,10.0,Calm,Calm,-,0.01,Rain,Light Rain,0,2013-05-09 23:31:00
7:56 PM,57.0,-9999,N/A,29.93,10.0,East,4.6,-,0.01,,Mostly Cloudy,90,2013-05-09 23:56:00
8:56 PM,55.9,-9999,N/A,29.94,10.0,ESE,3.5,-,N/A,,Scattered Clouds,120,2013-05-10 00:56:00
9:56 PM,57.0,57.0,100,29.95,9.0,Variable,3.5,-,0.00,Rain,Light Rain,0,2013-05-10 01:56:00
10:14 PM,57.2,57.2,100,29.91,8.0,North,3.5,-,0.00,,Overcast,350,2013-05-10 02:14:00
10:24 PM,57.2,57.2,100,29.90,8.0,NNW,3.5,-,0.00,,Overcast,340,2013-05-10 02:24:00
10:56 PM,57.0,57.0,100,29.94,10.0,NNW,3.5,-,0.00,,Overcast,330,2013-05-10 02:56:00
11:56 PM,57.0,57.0,100,29.93,10.0,Calm,Calm,-,0.01,,Overcast,0,2013-05-10 03:56:00